Regional Weather Roundup
Issued by NWS

Home | Current Version | Previous Version | Graphics & Text | Print | Product List | Glossary On
Versions: 1 2 3 4 5 6 7 8 9 10 11 12 13 14 15 16 17 18 19 20 21 22 23 24 25 26 27 28 29 30 31 32 33 34 35 36 37 38 39 40 41 42 43 44 45 46 47 48 49 50
020
ASUS44 KJAN 250103
RWRMS

MISSISSIPPI HOURLY WEATHER ROUNDUP
NATIONAL WEATHER SERVICE JACKSON MS
800 PM CDT THU JUL 24 2014

NOTE: "FAIR: INDICATES FEW OR NO CLOUDS BELOW 12,000 FEET WITH NO
SIGNIFICANT WEATHER AND/OR OBSTRUCTIONS TO VISIBILITY.

MSZ001>002-007>008-010>013-018>021-025>028-034>036-250200-
NORTHWEST MISSISSIPPI

CITY           SKY/WX    TMP DP  RH WIND       PRES   REMARKS
CLARKSDALE     FAIR      75  64  69 N6        30.00S
CLEVELAND      FAIR      76  71  84 N7        29.98R
GREENWOOD      CLEAR     78  65  63 N6        29.97R
GREENVILLE     CLEAR     79  71  76 N6        29.97R
GRENADA        FAIR      73  64  73 N5        29.98R
OLIVE BRANCH   PTCLDY    73  64  73 N7        30.02R
OXFORD         FAIR      73  61  64 N3        30.02R
TUNICA         CLEAR     72  63  73 N5        30.02R
$$

MSZ003>006-009-014>017-022>024-029>033-037>039-250200-
NORTHEAST MISSISSIPPI

CITY           SKY/WX    TMP DP  RH WIND       PRES   REMARKS
BELMONT        FAIR      74  64  71 NW3       30.00R
COLUMBUS AFB   CLEAR     79  69  69 N6        29.97R
CORINTH        FAIR      73  63  68 CALM      29.99R
GOLDN TRIANGLE PTCLDY    82  70  65 N7        29.97R
STARKVILLE     FAIR      79  70  73 CALM      29.96S
TUPELO         CLEAR     76  62  62 N7        29.99R
$$

MSZ040-058-250200-
CENTRAL MISSISSIPPI

CITY           SKY/WX    TMP DP  RH WIND       PRES   REMARKS
JACKSON INTL   PTCLDY    83  73  72 N7        29.95R
JACKSON HAWKNS CLEAR     84  72  67 N3        29.96R
MERIDIAN KEY   MOCLDY    77  75  93 S3        29.95R
MERIDIAN NAS   MOCLDY    77  73  87 SE3       29.96S
RAYMOND        FAIR      82  77  83 N3        29.96R HX  91
VICKSBURG      CLEAR     82  74  76 N6        29.95R
$$

MSZ059>079-250200-
SOUTH MISSISSIPPI

CITY           SKY/WX    TMP DP  RH WIND       PRES   REMARKS
BROOKHAVEN     FAIR      77  75  94 CALM      29.98R
COLUMBIA       FAIR      81  73  78 W6G12     29.94R THUNDER
HATTIESBURG    MOCLDY    83  76  79 CALM      29.94R HX  91
MCCOMB         CLOUDY    81  73  76 NW5       29.96R
NATCHEZ        CLEAR     82  75  78 CALM      29.96R
PINE BELT      CLEAR     82  72  69 CALM      29.96S
$$

MSZ080>082-250200-
COASTAL MISSISSIPPI

CITY           SKY/WX    TMP DP  RH WIND       PRES   REMARKS
BAY ST LOUIS   CLEAR    N/A N/A N/A CALM      29.95R
BILOXI         CLEAR     81  73  75 S5        29.95R
PASCAGOULA     CLEAR     81  73  76 CALM      29.96R
GULFPORT       PTCLDY    85  74  69 S5        29.94R HX  92
$$



USA.gov is the U.S. government's official web portal to all federal, state and local government web resources and services.